Fort Knox, KY

6:52 PM EDT on June 27, 2017 (GMT -0400)
Godman Army Air Field

Weather History for KFTK - March, 2014

Change the Weather History Date:

Tuesday, March 18, 2014

  Actual Average Record
Temperature  
Mean Temperature 41 °F -  
Max Temperature 52 °F 53 °F 79 °F (2012)
Min Temperature 30 °F 33 °F 24 °F (2007)
Degree Days  
Heating Degree Days 24    
Moisture  
Dew Point 37 °F    
Average Humidity 80    
Maximum Humidity 91    
Minimum Humidity 69    
Precipitation  
Precipitation 0.00 in - - ()
Sea Level Pressure  
Sea Level Pressure 29.88 in    
Wind  
Wind Speed 6 mph (ESE)    
Max Wind Speed 13 mph    
Max Gust Speed -    
Visibility 10 miles    
Events      
Averages and records for this station are not official NWS values.
T = Trace of Precipitation, MM = Missing Value Source: NWS Daily Summary

Daily Weather History Graph

Daily Weather History Graph

Search for Another Location

Airport or City:

Trip Planner

Search our weather history database for the weather conditions in past years. The results will help you decide how hot, cold, wet, or windy it might be!

Date:

Astronomy

Mar. 18, 2014 Rise Set
Actual Time 7:50 AM EDT 7:53 PM EDT
Civil Twilight 7:24 AM EDT 8:20 PM EDT
Nautical Twilight 6:53 AM EDT 8:50 PM EDT
Astronomical Twilight 6:22 AM EDT 9:21 PM EDT
Moon 10:07 PM EDT (3/18) 8:41 AM EDT (3/18)
Length of Visible Light 12h 55m
Length of Day
12h 03m
Waning Gibbous, 96% of the Moon is Illuminated
Mar 18
Waning Gibbous
Mar 23
Last Quarter
Mar 30
New
Apr 7
First Quarter
Apr 15
Full

Hourly Weather History & Observations

Time (EDT) Temp. Windchill Dew Point Humidity Pressure Visibility Wind Dir Wind Speed Gust Speed Precip Events Conditions
12:58 AM 32.4 °F 29.1 °F 28.6 °F 86% 29.89 in 10.0 mi East 3.5 mph - N/A   Clear
1:58 AM 30.6 °F - 27.7 °F 89% 29.89 in 10.0 mi ENE 2.3 mph - N/A   Clear
2:23 AM 32.0 °F - 28.4 °F 87% 29.86 in 10.0 mi ENE 2.3 mph - N/A   Mostly Cloudy
2:28 AM 32.0 °F - 28.4 °F 87% 29.86 in 10.0 mi ENE 2.3 mph - N/A   Mostly Cloudy
2:58 AM 32.4 °F - 30.0 °F 91% 29.89 in 10.0 mi East 2.3 mph - N/A   Overcast
3:58 AM 34.9 °F 32.0 °F 31.6 °F 88% 29.88 in 10.0 mi NNE 3.5 mph - N/A   Overcast
4:43 AM 35.6 °F 31.7 °F 32.0 °F 87% 29.85 in 10.0 mi ENE 4.6 mph - N/A   Overcast
4:58 AM 36.0 °F 32.1 °F 32.5 °F 87% 29.86 in 10.0 mi ENE 4.6 mph - N/A   Overcast
5:58 AM 36.1 °F 32.3 °F 32.7 °F 87% 29.87 in 10.0 mi ENE 4.6 mph - N/A   Overcast
6:58 AM 36.7 °F - 32.9 °F 86% 29.89 in 10.0 mi NNE 2.3 mph - N/A   Overcast
7:58 AM 36.5 °F 33.9 °F 33.3 °F 88% 29.90 in 10.0 mi NNE 3.5 mph - N/A   Overcast
8:58 AM 37.6 °F 34.0 °F 33.4 °F 85% 29.91 in 10.0 mi East 4.6 mph - N/A   Overcast
9:58 AM 38.7 °F 32.9 °F 34.0 °F 83% 29.93 in 10.0 mi East 8.1 mph - N/A   Overcast
10:58 AM 40.6 °F 35.4 °F 34.9 °F 80% 29.95 in 10.0 mi ESE 8.1 mph - N/A   Overcast
11:58 AM 43.0 °F 38.2 °F 36.7 °F 78% 29.98 in 10.0 mi SE 8.1 mph - N/A   Overcast
12:58 PM 44.6 °F 38.8 °F 39.2 °F 81% 29.97 in 10.0 mi SSE 11.5 mph - N/A   Overcast
1:58 PM 46.9 °F - 39.7 °F 76% 29.96 in 10.0 mi South 10.4 mph - N/A   Overcast
2:58 PM 48.6 °F - 40.8 °F 75% 29.95 in 10.0 mi South 12.7 mph - N/A   Overcast
3:58 PM 49.3 °F - 41.2 °F 74% 29.93 in 10.0 mi SSE 10.4 mph - N/A   Overcast
4:28 PM 50.0 °F - 41.0 °F 71% 29.89 in 10.0 mi SSE 12.7 mph - N/A   Overcast
4:58 PM 51.4 °F - 41.7 °F 69% 29.90 in 10.0 mi SSE 10.4 mph - N/A   Overcast
5:58 PM 51.6 °F - 42.3 °F 70% 29.87 in 10.0 mi SE 9.2 mph - N/A   Overcast
6:23 PM 51.8 °F - 42.8 °F 71% 29.84 in 10.0 mi ESE 9.2 mph - N/A   Overcast
6:38 PM 51.8 °F - 42.8 °F 71% 29.83 in 10.0 mi ESE 9.2 mph - N/A   Overcast
6:43 PM 51.8 °F - 42.8 °F 71% 29.83 in 10.0 mi SE 9.2 mph - N/A   Overcast
6:58 PM 52.2 °F - 42.8 °F 70% 29.83 in 10.0 mi ESE 9.2 mph - N/A   Overcast
7:58 PM 50.5 °F - 42.8 °F 75% 29.83 in 10.0 mi ESE 6.9 mph - N/A   Overcast
8:58 PM 48.7 °F - 42.6 °F 79% 29.83 in 10.0 mi ESE 8.1 mph - N/A   Overcast
9:58 PM 47.5 °F - 42.4 °F 83% 29.81 in 10.0 mi ESE 10.4 mph - N/A   Clear
10:58 PM 46.4 °F 41.9 °F 42.3 °F 85% 29.83 in 10.0 mi SE 9.2 mph - N/A   Clear
11:58 PM 48.0 °F - 43.0 °F 83% 29.86 in 10.0 mi South 12.7 mph - N/A   Clear